Location: St. Louis
(38.6270°N, 90.1994°W)
Time: 23:32:20
(UTC-05:00)

FO-29 - Visible Passes

Search period start: 09 August 2022 00:00
Search period end: 19 August 2022 00:00
Orbit: 800 x 1322 km, 98.5° (Epoch: 09 August)

Date Brightness Start Highest point End Pass type
(mag) Time Alt. Az. Time Alt. Az. Time Alt. Az.
10 Aug 12.6 20:59:51 10° WSW 21:02:32 12° W 21:05:07 10° WNW visible
12 Aug 12.6 20:54:25 10° WSW 20:57:27 13° W 21:00:21 10° WNW visible
14 Aug 12.5 20:49:02 10° WSW 20:52:21 14° W 20:55:32 10° WNW visible
16 Aug 12.4 20:43:42 10° SW 20:47:16 15° W 20:50:39 10° WNW visible
18 Aug 12.4 20:38:23 10° SW 20:42:10 16° W 20:45:43 10° WNW visible
